TimeEDT,TemperatureF,Dew PointF,Humidity,Sea Level PressureIn,VisibilityMPH,Wind Direction,Wind SpeedMPH,Gust SpeedMPH,PrecipitationIn,Events,Conditions,WindDirDegrees,DateUTC
12:15 AM,50.0,-9999,N/A,30.09,5.0,NNE,8.1,-,N/A,Rain,Rain,20,2014-04-19 04:15:00
12:35 AM,50.0,-9999,N/A,30.10,7.0,NNE,6.9,-,N/A,Rain,Rain,20,2014-04-19 04:35:00
12:55 AM,50.0,-9999,N/A,30.09,5.0,NNE,6.9,-,N/A,Rain,Rain,20,2014-04-19 04:55:00
1:15 AM,50.0,-9999,N/A,30.09,4.0,NNE,8.1,16.1,N/A,Rain,Rain,30,2014-04-19 05:15:00
1:35 AM,51.8,-9999,N/A,30.09,7.0,NE,5.8,16.1,N/A,Rain,Light Rain,40,2014-04-19 05:35:00
1:55 AM,51.8,-9999,N/A,30.08,10.0,NNE,8.1,-,N/A,,Drizzle,30,2014-04-19 05:55:00
2:15 AM,50.0,-9999,N/A,30.06,7.0,NE,9.2,16.1,N/A,,Drizzle,40,2014-04-19 06:15:00
2:35 AM,50.0,-9999,N/A,30.04,5.0,NE,10.4,17.3,N/A,,Drizzle,40,2014-04-19 06:35:00
2:55 AM,50.0,-9999,N/A,30.03,5.0,NNE,8.1,19.6,N/A,,Light Drizzle,30,2014-04-19 06:55:00
3:15 AM,50.0,-9999,N/A,30.03,5.0,NNE,8.1,17.3,N/A,,Light Drizzle,20,2014-04-19 07:15:00
3:35 AM,50.0,-9999,N/A,30.03,5.0,NNE,9.2,17.3,N/A,,Drizzle,30,2014-04-19 07:35:00
3:55 AM,50.0,-9999,N/A,30.03,4.0,NE,10.4,17.3,N/A,Rain,Rain,40,2014-04-19 07:55:00
4:15 AM,50.0,-9999,N/A,30.03,4.0,NNE,9.2,16.1,N/A,,Heavy Drizzle,30,2014-04-19 08:15:00
4:35 AM,50.0,-9999,N/A,30.03,4.0,NNE,9.2,-,N/A,,Heavy Drizzle,30,2014-04-19 08:35:00
4:55 AM,50.0,-9999,N/A,30.03,4.0,NE,8.1,16.1,N/A,,Heavy Drizzle,50,2014-04-19 08:55:00
5:15 AM,51.8,-9999,N/A,30.03,5.0,NE,8.1,-,N/A,,Drizzle,40,2014-04-19 09:15:00
5:35 AM,51.8,-9999,N/A,30.03,4.0,NNE,6.9,18.4,N/A,,Drizzle,30,2014-04-19 09:35:00
5:55 AM,51.8,-9999,N/A,30.03,4.0,NE,8.1,-,N/A,,Light Drizzle,40,2014-04-19 09:55:00
6:15 AM,51.8,-9999,N/A,30.03,7.0,NE,9.2,-,N/A,,Overcast,40,2014-04-19 10:15:00
6:35 AM,50.0,-9999,N/A,30.04,5.0,NNE,6.9,-,N/A,,Haze,30,2014-04-19 10:35:00
6:55 AM,51.8,-9999,N/A,30.05,5.0,NE,10.4,16.1,N/A,,Haze,40,2014-04-19 10:55:00
7:15 AM,51.8,-9999,N/A,30.05,5.0,NNE,10.4,16.1,N/A,,Haze,30,2014-04-19 11:15:00
7:35 AM,51.8,-9999,N/A,30.06,3.0,NE,6.9,16.1,N/A,Rain,Rain,40,2014-04-19 11:35:00
7:55 AM,51.8,-9999,N/A,30.06,3.0,NNE,6.9,16.1,N/A,,Drizzle,30,2014-04-19 11:55:00
8:15 AM,51.8,-9999,N/A,30.06,2.5,NNE,8.1,-,N/A,,Drizzle,30,2014-04-19 12:15:00
8:35 AM,51.8,-9999,N/A,30.05,3.0,NNE,9.2,-,N/A,,Light Drizzle,30,2014-04-19 12:35:00
8:55 AM,51.8,-9999,N/A,30.06,5.0,NNE,5.8,-,N/A,,Haze,30,2014-04-19 12:55:00
9:15 AM,51.8,-9999,N/A,30.06,10.0,NE,6.9,-,N/A,,Overcast,40,2014-04-19 13:15:00
9:35 AM,51.8,-9999,N/A,30.06,7.0,NNE,6.9,-,N/A,,Drizzle,30,2014-04-19 13:35:00
9:55 AM,53.6,-9999,N/A,30.06,2.0,NE,8.1,18.4,N/A,,Drizzle,40,2014-04-19 13:55:00
10:15 AM,53.6,-9999,N/A,30.06,2.0,NNE,6.9,16.1,N/A,,Drizzle,30,2014-04-19 14:15:00
10:35 AM,53.6,-9999,N/A,30.07,2.0,NNE,6.9,-,N/A,,Drizzle,30,2014-04-19 14:35:00
10:55 AM,53.6,-9999,N/A,30.08,1.8,NE,6.9,20.7,N/A,,Drizzle,40,2014-04-19 14:55:00
11:15 AM,53.6,-9999,N/A,30.08,2.0,NE,8.1,16.1,N/A,,Drizzle,40,2014-04-19 15:15:00
11:35 AM,53.6,-9999,N/A,30.08,2.0,NNE,6.9,18.4,N/A,,Drizzle,30,2014-04-19 15:35:00
11:55 AM,53.6,-9999,N/A,30.08,2.5,NNE,11.5,19.6,N/A,,Drizzle,30,2014-04-19 15:55:00
12:15 PM,53.6,-9999,N/A,30.09,2.5,NE,11.5,19.6,N/A,,Light Drizzle,40,2014-04-19 16:15:00
12:35 PM,53.6,-9999,N/A,30.08,4.0,NNE,11.5,16.1,N/A,,Light Drizzle,30,2014-04-19 16:35:00
12:55 PM,53.6,-9999,N/A,30.08,5.0,NE,12.7,20.7,N/A,,Haze,40,2014-04-19 16:55:00
1:15 PM,53.6,-9999,N/A,30.08,5.0,NE,8.1,-,N/A,,Haze,40,2014-04-19 17:15:00
1:35 PM,53.6,53.6,100,30.07,10.0,NNE,11.5,17.3,N/A,,Overcast,30,2014-04-19 17:35:00
1:55 PM,55.4,55.4,100,30.07,10.0,NNE,10.4,17.3,N/A,,Overcast,30,2014-04-19 17:55:00
2:15 PM,57.2,57.2,100,30.07,10.0,NE,11.5,19.6,N/A,,Overcast,40,2014-04-19 18:15:00
2:35 PM,57.2,57.2,100,30.07,10.0,NE,8.1,17.3,N/A,,Mostly Cloudy,40,2014-04-19 18:35:00
2:55 PM,57.2,57.2,100,30.07,4.0,NE,9.2,17.3,N/A,Rain,Light Rain,40,2014-04-19 18:55:00
3:15 PM,57.2,57.2,100,30.07,3.0,NNE,10.4,18.4,N/A,,Drizzle,20,2014-04-19 19:15:00
3:35 PM,55.4,55.4,100,30.07,2.5,NNE,8.1,17.3,N/A,Rain,Light Rain,30,2014-04-19 19:35:00
3:55 PM,55.4,55.4,100,30.07,4.0,NE,10.4,19.6,N/A,,Overcast,40,2014-04-19 19:55:00
4:15 PM,55.4,55.4,100,30.07,4.0,NNE,11.5,20.7,N/A,,Light Drizzle,20,2014-04-19 20:15:00
4:35 PM,55.4,55.4,100,30.08,7.0,NNE,10.4,17.3,N/A,,Overcast,20,2014-04-19 20:35:00
4:55 PM,55.4,55.4,100,30.08,10.0,NE,10.4,21.9,N/A,,Overcast,50,2014-04-19 20:55:00
5:15 PM,55.4,55.4,100,30.09,7.0,NE,10.4,16.1,N/A,,Mostly Cloudy,40,2014-04-19 21:15:00
5:35 PM,55.4,55.4,100,30.10,5.0,NNE,10.4,17.3,N/A,,Mostly Cloudy,30,2014-04-19 21:35:00
5:55 PM,53.6,53.6,100,30.11,4.0,NNE,13.8,24.2,N/A,,Drizzle,30,2014-04-19 21:55:00
6:15 PM,53.6,53.6,100,30.11,5.0,NNE,9.2,19.6,N/A,,Light Drizzle,30,2014-04-19 22:15:00
6:35 PM,53.6,53.6,100,30.11,4.0,NNE,8.1,16.1,N/A,Rain,Light Rain,30,2014-04-19 22:35:00
6:55 PM,53.6,53.6,100,30.11,7.0,NNE,12.7,21.9,N/A,,Light Drizzle,30,2014-04-19 22:55:00
7:15 PM,53.6,53.6,100,30.12,7.0,NNE,10.4,18.4,N/A,,Light Drizzle,30,2014-04-19 23:15:00
7:35 PM,53.6,53.6,100,30.12,5.0,NNE,9.2,16.1,N/A,,Drizzle,30,2014-04-19 23:35:00
7:55 PM,53.6,53.6,100,30.12,10.0,NE,8.1,21.9,N/A,,Drizzle,40,2014-04-19 23:55:00
8:15 PM,53.6,53.6,100,30.13,10.0,NE,11.5,18.4,N/A,,Mostly Cloudy,50,2014-04-20 00:15:00
8:35 PM,53.6,53.6,100,30.14,10.0,NE,15.0,24.2,N/A,,Light Drizzle,40,2014-04-20 00:35:00
8:55 PM,53.6,53.6,100,30.15,10.0,NE,10.4,19.6,N/A,,Scattered Clouds,40,2014-04-20 00:55:00
9:15 PM,53.6,53.6,100,30.16,5.0,NNE,12.7,18.4,N/A,,Mostly Cloudy,30,2014-04-20 01:15:00
9:35 PM,53.6,53.6,100,30.16,10.0,NNE,12.7,19.6,N/A,,Mostly Cloudy,30,2014-04-20 01:35:00
9:55 PM,53.6,53.6,100,30.17,10.0,NNE,10.4,21.9,N/A,,Mostly Cloudy,30,2014-04-20 01:55:00
10:15 PM,53.6,53.6,100,30.17,4.0,NNE,9.2,-,N/A,Rain,Rain,30,2014-04-20 02:15:00
10:35 PM,51.8,51.8,100,30.17,4.0,NE,16.1,24.2,N/A,,Drizzle,40,2014-04-20 02:35:00
10:55 PM,51.8,51.8,100,30.17,4.0,NE,9.2,19.6,N/A,,Drizzle,40,2014-04-20 02:55:00
11:15 PM,51.8,51.8,100,30.17,5.0,NE,11.5,19.6,N/A,,Light Drizzle,50,2014-04-20 03:15:00
11:35 PM,51.8,51.8,100,30.17,10.0,NE,8.1,17.3,N/A,,Mostly Cloudy,50,2014-04-20 03:35:00
11:55 PM,51.8,51.8,100,30.17,10.0,NE,8.1,18.4,N/A,,Overcast,40,2014-04-20 03:55:00